| time (UTC) | temp F | wind direction | speed MPH | gust MPH | rain 1hr in | rain 24hr in | rain mn in | humidity % | barometer mb |
| 20260509055403 | 56 | 0 | 0.0 | 0.0 | 0.00 | 0.00 | 0.00 | 98 | 1009.1 |
| 20260509054505 | 56 | 0 | 0.0 | 0.0 | 0.00 | 0.00 | 0.00 | 98 | 1009.1 |
| 20260509053603 | 56 | 0 | 0.0 | 0.0 | 0.00 | 0.00 | 0.00 | 98 | 1009.1 |
| 20260509052913 | 56 | 0 | 0.0 | 0.0 | 0.00 | 0.00 | 0.00 | 98 | 1009.1 |
| 20260509051803 | 55 | 0 | 0.0 | 0.0 | 0.00 | 0.00 | 0.00 | 98 | 1009.1 |
| 20260509050903 | 55 | 90 | 0.0 | 1.0 | 0.00 | 0.00 | 0.00 | 98 | 1009.1 |
| 20260509050003 | 55 | 0 | 0.0 | 0.0 | 0.00 | 0.00 | 0.00 | 98 | 1009.1 |
| 20260509045405 | 55 | 0 | 0.0 | 0.0 | 0.00 | 0.00 | 0.00 | 98 | 1009.1 |
| 20260509044505 | 55 | 0 | 0.0 | 0.0 | 0.00 | 0.00 | 0.00 | 98 | 1009.1 |
| 20260509043815 | 55 | 0 | 0.0 | 0.0 | 0.00 | 0.00 | 0.00 | 98 | 1009.1 |
| 20260509042704 | 54 | 0 | 0.0 | 0.0 | 0.00 | 0.00 | 0.00 | 98 | 1009.1 |
| 20260509041805 | 55 | 0 | 0.0 | 0.0 | 0.00 | 0.00 | 0.00 | 98 | 1009.1 |
| 20260509040903 | 55 | 0 | 0.0 | 0.0 | 0.00 | 0.00 | 0.00 | 98 | 1009.1 |
| 20260509040004 | 55 | 0 | 0.0 | 0.0 | 0.00 | 0.00 | 0.00 | 98 | 1009.1 |
| 20260509035403 | 55 | 0 | 0.0 | 0.0 | 0.00 | 0.00 | 0.00 | 98 | 1009.1 |
| 20260509034505 | 55 | 0 | 0.0 | 0.0 | 0.00 | 0.00 | 0.00 | 98 | 1009.1 |
| 20260509033603 | 55 | 0 | 0.0 | 0.0 | 0.00 | 0.00 | 0.00 | 98 | 1009.1 |
| 20260509032704 | 55 | 0 | 0.0 | 0.0 | 0.00 | 0.00 | 0.00 | 98 | 1009.1 |
| 20260509031804 | 55 | 0 | 0.0 | 0.0 | 0.00 | 0.00 | 0.00 | 98 | 1009.1 |
| 20260509031113 | 55 | 0 | 0.0 | 0.0 | 0.00 | 0.00 | 0.00 | 98 | 1009.1 |
| 20260509030003 | 55 | 0 | 0.0 | 0.0 | 0.00 | 0.00 | 0.00 | 97 | 1009.1 |
| 20260509025403 | 55 | 0 | 0.0 | 0.0 | 0.00 | 0.00 | 0.00 | 97 | 1009.1 |
| 20260509024506 | 56 | 0 | 0.0 | 0.0 | 0.00 | 0.00 | 0.00 | 97 | 1009.1 |
| 20260509023813 | 56 | 0 | 0.0 | 0.0 | 0.00 | 0.00 | 0.00 | 97 | 1009.1 |
| 20260509022703 | 56 | 0 | 0.0 | 0.0 | 0.00 | 0.00 | 0.00 | 97 | 1009.1 |
| 20260509021803 | 57 | 0 | 0.0 | 0.0 | 0.00 | 0.00 | 0.00 | 97 | 1009.1 |
| 20260509021115 | 57 | 0 | 0.0 | 0.0 | 0.00 | 0.00 | 0.00 | 97 | 1009.1 |
| 20260509020005 | 57 | 0 | 0.0 | 0.0 | 0.00 | 0.00 | 0.00 | 97 | 1009.1 |
| 20260509015403 | 57 | 0 | 0.0 | 0.0 | 0.00 | 0.00 | 0.00 | 97 | 1009.1 |
| 20260509014503 | 57 | 0 | 0.0 | 0.0 | 0.00 | 0.00 | 0.00 | 97 | 1009.1 |
| 20260509013814 | 57 | 0 | 0.0 | 0.0 | 0.00 | 0.00 | 0.00 | 97 | 1009.1 |
| 20260509012705 | 57 | 0 | 0.0 | 0.0 | 0.00 | 0.00 | 0.00 | 97 | 1009.1 |
| 20260509011803 | 57 | 0 | 0.0 | 0.0 | 0.00 | 0.00 | 0.00 | 96 | 1009.1 |
| 20260509010903 | 57 | 0 | 0.0 | 0.0 | 0.00 | 0.00 | 0.00 | 96 | 1009.1 |
| 20260509010005 | 57 | 0 | 0.0 | 0.0 | 0.00 | 0.00 | 0.00 | 96 | 1009.1 |
| 20260509005613 | 57 | 0 | 0.0 | 0.0 | 0.00 | 0.00 | 0.00 | 96 | 1009.1 |
| 20260509004505 | 58 | 0 | 0.0 | 0.0 | 0.00 | 0.00 | 0.00 | 96 | 1009.1 |
| 20260509003814 | 58 | 0 | 0.0 | 0.0 | 0.00 | 0.00 | 0.00 | 96 | 1009.1 |
| 20260509002705 | 58 | 0 | 0.0 | 0.0 | 0.00 | 0.00 | 0.00 | 96 | 1009.1 |
| 20260509001803 | 58 | 0 | 0.0 | 0.0 | 0.00 | 0.00 | 0.00 | 95 | 1009.1 |
| 20260509000903 | 58 | 0 | 0.0 | 0.0 | 0.00 | 0.00 | 0.00 | 95 | 1009.1 |
| 20260509000003 | 58 | 0 | 0.0 | 0.0 | 0.00 | 0.00 | 0.00 | 95 | 1009.1 |
| 20260508235405 | 58 | 0 | 0.0 | 0.0 | 0.00 | 0.00 | 0.00 | 94 | 1010.1 |
| 20260508234503 | 58 | 0 | 0.0 | 0.0 | 0.00 | 0.00 | 0.00 | 94 | 1010.1 |
| 20260508233815 | 58 | 0 | 0.0 | 0.0 | 0.00 | 0.00 | 0.00 | 94 | 1010.1 |
| 20260508232915 | 58 | 0 | 0.0 | 0.0 | 0.00 | 0.00 | 0.00 | 93 | 1010.1 |
| 20260508231803 | 58 | 0 | 0.0 | 0.0 | 0.00 | 0.00 | 0.00 | 93 | 1010.1 |
| 20260508230903 | 58 | 0 | 0.0 | 0.0 | 0.00 | 0.00 | 0.00 | 93 | 1010.1 |
| 20260508230005 | 58 | 0 | 0.0 | 0.0 | 0.00 | 0.00 | 0.00 | 92 | 1010.1 |
| 20260508225403 | 58 | 0 | 0.0 | 0.0 | 0.00 | 0.00 | 0.00 | 92 | 1010.1 |
| 20260508224716 | 58 | 0 | 0.0 | 0.0 | 0.00 | 0.00 | 0.00 | 91 | 1010.1 |
| 20260508223605 | 58 | 0 | 0.0 | 0.0 | 0.00 | 0.00 | 0.00 | 90 | 1010.1 |
| 20260508222703 | 58 | 0 | 0.0 | 0.0 | 0.00 | 0.00 | 0.00 | 90 | 1010.1 |
| 20260508221805 | 59 | 0 | 0.0 | 0.0 | 0.00 | 0.00 | 0.00 | 89 | 1011.1 |
| 20260508220904 | 59 | 0 | 0.0 | 0.0 | 0.00 | 0.00 | 0.00 | 88 | 1011.1 |
| 20260508220215 | 59 | 0 | 0.0 | 0.0 | 0.00 | 0.00 | 0.00 | 87 | 1011.1 |
| 20260508215614 | 59 | 0 | 0.0 | 0.0 | 0.00 | 0.00 | 0.62 | 87 | 1011.1 |
| 20260508214505 | 59 | 0 | 0.0 | 0.0 | 0.00 | 0.00 | 0.62 | 86 | 1011.1 |
| 20260508213603 | 59 | 0 | 0.0 | 0.0 | 0.00 | 0.00 | 0.62 | 84 | 1011.1 |
| 20260508212705 | 59 | 0 | 0.0 | 0.0 | 0.00 | 0.00 | 0.62 | 84 | 1011.1 |
| 20260508211803 | 59 | 0 | 0.0 | 0.0 | 0.00 | 0.00 | 0.62 | 83 | 1010.1 |
| 20260508210903 | 59 | 0 | 0.0 | 0.0 | 0.00 | 0.00 | 0.62 | 82 | 1010.1 |
| 20260508210003 | 59 | 0 | 0.0 | 0.0 | 0.00 | 0.00 | 0.62 | 82 | 1010.1 |
| 20260508205403 | 59 | 0 | 0.0 | 0.0 | 0.00 | 0.00 | 0.62 | 82 | 1010.1 |
| 20260508204505 | 59 | 0 | 0.0 | 0.0 | 0.00 | 0.00 | 0.62 | 81 | 1010.1 |
| 20260508203605 | 59 | 0 | 0.0 | 0.0 | 0.00 | 0.00 | 0.62 | 80 | 1010.1 |
| 20260508202703 | 59 | 0 | 0.0 | 0.0 | 0.00 | 0.00 | 0.62 | 79 | 1010.1 |
| 20260508201803 | 59 | 0 | 0.0 | 0.0 | 0.00 | 0.00 | 0.62 | 78 | 1010.1 |
| 20260508201112 | 60 | 0 | 0.0 | 0.0 | 0.00 | 0.00 | 0.62 | 77 | 1010.1 |
| 20260508200214 | 60 | 0 | 0.0 | 0.0 | 0.00 | 0.00 | 0.62 | 76 | 1010.1 |
| 20260508195403 | 60 | 0 | 0.0 | 0.0 | 0.00 | 0.00 | 0.62 | 75 | 1010.1 |
| 20260508194508 | 61 | 0 | 0.0 | 0.0 | 0.00 | 0.00 | 0.62 | 74 | 1010.1 |
| 20260508193814 | 62 | 0 | 0.0 | 0.0 | 0.00 | 0.00 | 0.62 | 74 | 1010.1 |
| 20260508192703 | 62 | 0 | 0.0 | 0.0 | 0.00 | 0.00 | 0.62 | 73 | 1010.1 |
| 20260508191805 | 63 | 0 | 0.0 | 0.0 | 0.00 | 0.00 | 0.62 | 72 | 1010.1 |
| 20260508190903 | 63 | 0 | 0.0 | 0.0 | 0.00 | 0.00 | 0.62 | 72 | 1010.1 |
| 20260508190005 | 63 | 315 | 0.0 | 2.0 | 0.00 | 0.00 | 0.62 | 71 | 1010.1 |
| 20260508185405 | 63 | 0 | 0.0 | 0.0 | 0.00 | 0.00 | 0.62 | 71 | 1010.1 |
| 20260508184503 | 64 | 337 | 0.0 | 3.0 | 0.00 | 0.00 | 0.62 | 71 | 1010.1 |
| 20260508183605 | 64 | 315 | 0.0 | 6.0 | 0.00 | 0.00 | 0.62 | 70 | 1010.1 |
| 20260508182704 | 64 | 228 | 0.0 | 5.0 | 0.00 | 0.00 | 0.62 | 71 | 1010.1 |
| 20260508181803 | 65 | 297 | 5.0 | 5.0 | 0.00 | 0.00 | 0.62 | 70 | 1010.1 |
| 20260508180903 | 65 | 300 | 3.0 | 5.0 | 0.00 | 0.00 | 0.62 | 71 | 1010.1 |
| 20260508180005 | 66 | 296 | 2.0 | 5.0 | 0.00 | 0.00 | 0.62 | 70 | 1010.1 |
| 20260508175403 | 67 | 232 | 0.0 | 4.0 | 0.00 | 0.00 | 0.62 | 68 | 1009.1 |
| 20260508174503 | 71 | 225 | 0.0 | 3.0 | 0.00 | 0.00 | 0.62 | 55 | 1009.1 |
| 20260508173604 | 72 | 0 | 0.0 | 0.0 | 0.00 | 0.00 | 0.62 | 52 | 1009.1 |
| 20260508172913 | 72 | 0 | 0.0 | 0.0 | 0.00 | 0.00 | 0.62 | 51 | 1009.1 |
| 20260508172014 | 73 | 0 | 0.0 | 0.0 | 0.00 | 0.00 | 0.62 | 51 | 1009.1 |
| 20260508170903 | 73 | 0 | 0.0 | 0.0 | 0.00 | 0.00 | 0.62 | 50 | 1009.1 |
| 20260508170004 | 73 | 0 | 0.0 | 0.0 | 0.00 | 0.00 | 0.62 | 50 | 1009.1 |
| 20260508165405 | 74 | 0 | 0.0 | 0.0 | 0.00 | 0.00 | 0.62 | 50 | 1009.1 |
| 20260508164503 | 75 | 0 | 0.0 | 0.0 | 0.00 | 0.00 | 0.62 | 51 | 1009.1 |
| 20260508163603 | 76 | 0 | 0.0 | 0.0 | 0.00 | 0.00 | 0.62 | 50 | 1008.1 |
| 20260508162703 | 76 | 0 | 0.0 | 0.0 | 0.00 | 0.00 | 0.62 | 49 | 1008.1 |
| 20260508161805 | 76 | 0 | 0.0 | 0.0 | 0.00 | 0.00 | 0.62 | 49 | 1008.1 |
| 20260508160903 | 76 | 0 | 0.0 | 0.0 | 0.00 | 0.00 | 0.62 | 51 | 1008.1 |
| 20260508160004 | 76 | 0 | 0.0 | 0.0 | 0.00 | 0.00 | 0.62 | 52 | 1008.1 |
| 20260508155403 | 76 | 0 | 0.0 | 0.0 | 0.00 | 0.00 | 0.62 | 51 | 1008.1 |